| time (UTC) | temp C | wind direction | speed KPH | gust KPH | rain 1hr cm | rain 24hr cm | rain mn cm | humidity % | barometer mb |
| 20260504004536 | 9 | 333 | 0.0 | 0.0 | 0.00 | 0.00 | 0.00 | 46 | 1006.2 |
| 20260504003036 | 10 | 333 | 0.0 | 0.0 | 0.00 | 0.00 | 0.00 | 44 | 1005.9 |
| 20260504001539 | 11 | 333 | 0.0 | 0.0 | 0.00 | 0.00 | 0.00 | 42 | 1005.7 |
| 20260504000038 | 12 | 333 | 0.0 | 0.0 | 0.00 | 0.00 | 0.00 | 35 | 1005.5 |
| 20260503234535 | 12 | 333 | 0.0 | 1.6 | 0.00 | 0.00 | 0.00 | 33 | 1005.2 |
| 20260503233035 | 13 | 333 | 0.0 | 4.8 | 0.00 | 0.00 | 0.00 | 31 | 1005.1 |
| 20260503231535 | 13 | 218 | 0.0 | 3.2 | 0.00 | 0.00 | 0.00 | 29 | 1005.0 |
| 20260503230034 | 13 | 303 | 0.0 | 4.8 | 0.00 | 0.00 | 0.00 | 27 | 1004.8 |
| 20260503224534 | 13 | 219 | 1.6 | 4.8 | 0.00 | 0.00 | 0.00 | 27 | 1004.7 |
| 20260503223034 | 14 | 349 | 3.2 | 14.5 | 0.00 | 0.00 | 0.00 | 27 | 1004.7 |
| 20260503221535 | 14 | 315 | 3.2 | 11.3 | 0.00 | 0.00 | 0.00 | 25 | 1004.7 |
| 20260503220035 | 14 | 323 | 1.6 | 11.3 | 0.00 | 0.00 | 0.00 | 27 | 1004.8 |
| 20260503214540 | 14 | 186 | 1.6 | 6.4 | 0.00 | 0.00 | 0.00 | 25 | 1004.8 |
| 20260503213036 | 14 | 326 | 6.4 | 16.1 | 0.00 | 0.00 | 0.00 | 28 | 1004.7 |
| 20260503211538 | 14 | 321 | 8.0 | 20.9 | 0.00 | 0.00 | 0.00 | 24 | 1004.7 |
| 20260503210033 | 14 | 311 | 6.4 | 19.3 | 0.00 | 0.00 | 0.00 | 24 | 1004.7 |
| 20260503204534 | 14 | 307 | 4.8 | 11.3 | 0.00 | 0.00 | 0.00 | 26 | 1004.7 |
| 20260503203030 | 13 | 313 | 8.0 | 19.3 | 0.00 | 0.00 | 0.00 | 25 | 1004.8 |
| 20260503201528 | 13 | 360 | 3.2 | 14.5 | 0.00 | 0.00 | 0.00 | 31 | 1004.8 |
| 20260503200034 | 13 | 331 | 3.2 | 9.7 | 0.00 | 0.00 | 0.00 | 29 | 1005.1 |
| 20260503194525 | 13 | 298 | 4.8 | 16.1 | 0.00 | 0.00 | 0.00 | 29 | 1005.1 |
| 20260503193029 | 13 | 299 | 1.6 | 12.9 | 0.00 | 0.00 | 0.00 | 29 | 1005.2 |
| 20260503191523 | 12 | 302 | 1.6 | 8.0 | 0.00 | 0.00 | 0.00 | 31 | 1005.4 |
| 20260503190022 | 12 | 341 | 3.2 | 20.9 | 0.00 | 0.00 | 0.00 | 28 | 1005.6 |
| 20260503184528 | 12 | 304 | 6.4 | 19.3 | 0.00 | 0.00 | 0.00 | 31 | 1005.6 |
| 20260503183022 | 12 | 296 | 6.4 | 14.5 | 0.00 | 0.00 | 0.00 | 30 | 1005.7 |
| 20260503181521 | 12 | 322 | 3.2 | 22.5 | 0.00 | 0.00 | 0.00 | 31 | 1005.6 |
| 20260503180038 | 12 | 355 | 1.6 | 16.1 | 0.00 | 0.00 | 0.00 | 38 | 1005.7 |
| 20260503174524 | 11 | 225 | 0.0 | 8.0 | 0.00 | 0.00 | 0.00 | 40 | 1006.1 |
| 20260503173022 | 11 | 221 | 3.2 | 16.1 | 0.00 | 0.00 | 0.00 | 36 | 1006.2 |
| 20260503171516 | 11 | 355 | 4.8 | 22.5 | 0.00 | 0.00 | 0.00 | 36 | 1006.1 |
| 20260503100116 | 6 | 317 | 3.2 | 8.0 | 0.00 | 0.00 | 0.00 | 51 | 1005.1 |
| 20260503081551 | 7 | 304 | 0.0 | 4.8 | 0.00 | 0.00 | 0.00 | 50 | 1004.7 |
| 20260503071552 | 7 | 297 | 0.0 | 3.2 | 0.00 | 0.00 | 0.00 | 49 | 1004.7 |
| 20260503054536 | 8 | 246 | 1.6 | 4.8 | 0.00 | 0.00 | 0.00 | 44 | 1005.2 |
| 20260503053035 | 8 | 216 | 0.0 | 3.2 | 0.00 | 0.00 | 0.00 | 44 | 1005.2 |
| 20260503051538 | 8 | 197 | 0.0 | 4.8 | 0.00 | 0.00 | 0.00 | 43 | 1005.5 |
| 20260503050032 | 8 | 188 | 0.0 | 9.7 | 0.00 | 0.00 | 0.00 | 43 | 1005.7 |
| 20260503044533 | 9 | 219 | 0.0 | 3.2 | 0.00 | 0.00 | 0.00 | 44 | 1005.7 |
| 20260503043029 | 9 | 219 | 0.0 | 3.2 | 0.00 | 0.00 | 0.00 | 44 | 1005.7 |
| 20260503041533 | 9 | 267 | 0.0 | 4.8 | 0.00 | 0.00 | 0.00 | 41 | 1005.8 |
| 20260503040028 | 10 | 275 | 0.0 | 4.8 | 0.00 | 0.00 | 0.00 | 40 | 1005.7 |
| 20260503034529 | 10 | 261 | 0.0 | 4.8 | 0.00 | 0.00 | 0.00 | 40 | 1005.7 |
| 20260503033035 | 10 | 328 | 0.0 | 3.2 | 0.00 | 0.00 | 0.00 | 42 | 1005.7 |
| 20260503031526 | 10 | 328 | 0.0 | 3.2 | 0.00 | 0.00 | 0.00 | 40 | 1005.6 |
| 20260503030044 | 10 | 336 | 0.0 | 3.2 | 0.00 | 0.00 | 0.00 | 41 | 1005.6 |
| 20260503024531 | 10 | 336 | 0.0 | 3.2 | 0.00 | 0.00 | 0.00 | 38 | 1005.7 |
| 20260503023024 | 10 | 336 | 0.0 | 4.8 | 0.00 | 0.00 | 0.00 | 37 | 1005.5 |
| 20260503021527 | 11 | 336 | 1.6 | 4.8 | 0.00 | 0.00 | 0.00 | 37 | 1005.7 |
| 20260503020025 | 11 | 313 | 1.6 | 4.8 | 0.00 | 0.00 | 0.00 | 37 | 1005.6 |
| 20260503014524 | 11 | 313 | 0.0 | 3.2 | 0.00 | 0.00 | 0.00 | 37 | 1005.7 |
| 20260503013025 | 11 | 5 | 0.0 | 3.2 | 0.00 | 0.00 | 0.00 | 38 | 1005.7 |
| 20260503011525 | 11 | 5 | 0.0 | 4.8 | 0.00 | 0.00 | 0.00 | 38 | 1005.7 |
| 20260503010024 | 11 | 33 | 0.0 | 3.2 | 0.00 | 0.00 | 0.00 | 38 | 1005.4 |